Total_Precipitation_Accumulation
0.00 0.01 0.01 0.01 0.03 0.03 0.03 0.05 0.08 0.08 0.14 0.15 0.15 0.13 0.13 0.13 0.13 0.15 0.15 0.20 0.24 0.21 0.21 0.19 0.15 0.13 0.13 0.12 0.11 0.11 0.16 0.16 0.17 0.20 0.20 0.55 0.82 1.11 1.11 1.17 1.28 1.16 1.16 0.91 0.79 0.79 0.88 0.66 0.56 0.56 0.45 0.40 0.42 0.37 0.37 0.41 0.37 0.28 0.28 0.27 0.28 0.12 0.12 0.09 0.17 0.17 0.39 0.56 0.60
0.00 0.00 0.00 0.01 0.02 0.02 0.02 0.03 0.05 0.05 0.12 0.14 0.16 0.14 0.14 0.13 0.13 0.14 0.14 0.20 0.25 0.24 0.24 0.19 0.15 0.13 0.13 0.11 0.08 0.08 0.10 0.10 0.15 0.23 0.23 0.33 0.42 0.79 0.79 1.09 1.08 1.32 1.32 1.27 1.13 1.13 0.94 0.78 0.65 0.65 0.57 0.51 0.41 0.33 0.33 0.34 0.38 0.42 0.42 0.45 0.47 0.15 0.15 0.11 0.20 0.20 0.36 0.52 0.64
0.00 0.00 0.00 0.01 0.02 0.02 0.02 0.03 0.04 0.04 0.10 0.14 0.16 0.15 0.15 0.13 0.11 0.13 0.13 0.18 0.21 0.20 0.20 0.19 0.17 0.14 0.14 0.10 0.08 0.08 0.07 0.08 0.11 0.16 0.16 0.20 0.28 0.45 0.45 0.76 1.20 1.39 1.39 1.26 0.99 0.99 0.84 0.85 0.82 0.82 0.86 0.82 0.68 0.47 0.47 0.25 0.28 0.39 0.39 0.46 0.47 0.25 0.25 0.19 0.28 0.28 0.41 0.51 0.51
0.00 0.00 0.00 0.01 0.01 0.01 0.02 0.03 0.03 0.03 0.08 0.13 0.14 0.14 0.14 0.12 0.09 0.10 0.10 0.14 0.15 0.17 0.17 0.20 0.17 0.16 0.16 0.12 0.11 0.11 0.07 0.06 0.06 0.09 0.09 0.15 0.20 0.27 0.27 0.38 0.50 0.86 0.86 1.35 1.22 1.22 0.90 0.96 0.98 0.98 1.01 0.90 0.85 0.76 0.76 0.58 0.38 0.45 0.45 0.45 0.41 0.39 0.39 0.43 0.58 0.58 0.68 0.58 0.43
0.00 0.00 0.00 0.00 0.01 0.01 0.01 0.02 0.03 0.03 0.06 0.10 0.13 0.13 0.13 0.11 0.07 0.06 0.06 0.10 0.14 0.17 0.17 0.19 0.18 0.16 0.16 0.15 0.13 0.13 0.09 0.06 0.04 0.05 0.05 0.09 0.10 0.15 0.15 0.18 0.31 0.47 0.47 1.08 1.16 1.16 1.15 1.19 1.36 1.36 1.30 1.17 1.03 0.88 0.88 0.70 0.54 0.45 0.45 0.44 0.36 0.36 0.36 0.40 0.53 0.53 0.67 0.55 0.49
0.00 0.00 0.00 0.00 0.01 0.01 0.01 0.01 0.02 0.02 0.04 0.07 0.10 0.10 0.10 0.10 0.07 0.07 0.07 0.10 0.13 0.15 0.15 0.16 0.16 0.13 0.13 0.13 0.14 0.14 0.13 0.09 0.06 0.04 0.04 0.06 0.06 0.08 0.08 0.12 0.19 0.27 0.27 0.43 0.89 0.89 0.65 0.80 1.10 1.10 1.57 1.65 1.50 1.23 1.23 0.89 0.71 0.52 0.52 0.41 0.30 0.23 0.23 0.24 0.33 0.33 0.43 0.51 0.41
0.00 0.00 0.00 0.00 0.00 0.00 0.01 0.01 0.02 0.02 0.02 0.04 0.06 0.08 0.08 0.10 0.07 0.08 0.08 0.09 0.08 0.08 0.08 0.11 0.10 0.12 0.12 0.12 0.13 0.13 0.14 0.14 0.09 0.06 0.06 0.05 0.06 0.06 0.06 0.07 0.10 0.16 0.16 0.19 0.57 0.57 0.41 0.50 0.68 0.68 0.93 1.17 1.29 1.34 1.34 1.30 1.06 0.67 0.67 0.56 0.41 0.32 0.32 0.22 0.19 0.19 0.33 0.39 0.30
0.00 0.00 0.00 0.00 0.00 0.00 0.01 0.01 0.01 0.01 0.01 0.02 0.04 0.06 0.06 0.08 0.08 0.07 0.07 0.08 0.07 0.07 0.07 0.07 0.08 0.10 0.10 0.12 0.11 0.11 0.11 0.17 0.13 0.09 0.09 0.07 0.07 0.06 0.06 0.05 0.06 0.09 0.09 0.12 0.30 0.30 0.20 0.27 0.32 0.32 0.41 0.50 0.78 0.92 0.92 0.99 0.89 0.47 0.47 0.41 0.43 0.42 0.42 0.34 0.30 0.30 0.30 0.31 0.29
0.00 0.00 0.00 0.00 0.00 0.00 0.00 0.01 0.01 0.01 0.01 0.01 0.02 0.04 0.04 0.05 0.06 0.05 0.05 0.07 0.09 0.07 0.07 0.07 0.06 0.07 0.07 0.08 0.09 0.09 0.09 0.19 0.16 0.11 0.11 0.09 0.08 0.07 0.07 0.06 0.05 0.06 0.06 0.07 0.06 0.06 0.11 0.14 0.14 0.14 0.14 0.19 0.34 0.41 0.41 0.49 0.53 0.30 0.30 0.19 0.36 0.36 0.36 0.35 0.41 0.41 0.41 0.50 0.32
0.00 0.00 0.00 0.00 0.00 0.00 0.00 0.00 0.01 0.01 0.01 0.01 0.01 0.03 0.03 0.04 0.03 0.04 0.04 0.06 0.08 0.06 0.06 0.06 0.05 0.04 0.04 0.06 0.07 0.07 0.08 0.18 0.16 0.11 0.11 0.09 0.08 0.08 0.08 0.09 0.07 0.05 0.05 0.06 0.06 0.06 0.08 0.14 0.11 0.11 0.07 0.07 0.09 0.22 0.22 0.32 0.37 0.30 0.30 0.18 0.16 0.20 0.20 0.24 0.39 0.39 0.51 0.57 0.51
0.00 0.00 0.00 0.00 0.00 0.00 0.00 0.00 0.00 0.00 0.01 0.01 0.01 0.01 0.01 0.01 0.02 0.03 0.03 0.02 0.03 0.03 0.03 0.04 0.04 0.04 0.04 0.05 0.05 0.05 0.06 0.11 0.16 0.12 0.12 0.09 0.08 0.07 0.07 0.10 0.10 0.07 0.07 0.09 0.07 0.07 0.06 0.08 0.10 0.10 0.11 0.13 0.11 0.11 0.11 0.17 0.35 0.28 0.28 0.17 0.12 0.13 0.13 0.17 0.40 0.40 0.59 0.63 0.54
0.00 0.00 0.00 0.00 0.00 0.00 0.00 0.00 0.00 0.00 0.00 0.01 0.01 0.01 0.01 0.01 0.02 0.02 0.02 0.01 0.01 0.02 0.02 0.02 0.05 0.04 0.04 0.04 0.04 0.04 0.04 0.07 0.13 0.11 0.11 0.08 0.07 0.06 0.06 0.07 0.11 0.11 0.11 0.11 0.10 0.10 0.09 0.07 0.09 0.09 0.23 0.30 0.27 0.16 0.16 0.11 0.36 0.21 0.21 0.19 0.12 0.12 0.12 0.18 0.45 0.45 0.61 0.60 0.51
0.00 0.00 0.00 0.00 0.00 0.00 0.00 0.00 0.00 0.00 0.00 0.01 0.01 0.01 0.01 0.01 0.01 0.02 0.02 0.01 0.01 0.02 0.02 0.01 0.02 0.03 0.03 0.04 0.04 0.04 0.04 0.05 0.09 0.11 0.11 0.09 0.08 0.06 0.06 0.06 0.09 0.09 0.09 0.10 0.11 0.11 0.11 0.09 0.09 0.09 0.27 0.47 0.43 0.19 0.19 0.12 0.56 0.16 0.16 0.17 0.15 0.14 0.14 0.13 0.42 0.42 0.62 0.55 0.44
0.00 0.00 0.00 0.00 0.00 0.00 0.00 0.00 0.00 0.00 0.00 0.01 0.01 0.01 0.01 0.01 0.01 0.02 0.02 0.01 0.02 0.02 0.02 0.01 0.01 0.02 0.02 0.03 0.04 0.04 0.04 0.04 0.05 0.08 0.08 0.07 0.07 0.06 0.06 0.06 0.08 0.08 0.08 0.09 0.10 0.10 0.10 0.11 0.11 0.11 0.28 0.55 0.47 0.28 0.28 0.12 0.09 0.17 0.17 0.19 0.19 0.18 0.18 0.18 0.20 0.20 0.67 0.62 0.56
0.00 0.00 0.00 0.00 0.00 0.00 0.00 0.00 0.00 0.00 0.00 0.00 0.01 0.01 0.01 0.01 0.01 0.02 0.02 0.02 0.01 0.01 0.01 0.01 0.01 0.02 0.02 0.02 0.03 0.03 0.04 0.06 0.06 0.06 0.06 0.05 0.05 0.05 0.05 0.06 0.05 0.06 0.06 0.06 0.06 0.06 0.07 0.08 0.09 0.09 0.12 0.31 0.32 0.26 0.26 0.14 0.14 0.22 0.22 0.22 0.21 0.21 0.21 0.22 0.25 0.25 0.42 0.78 0.75
0.00 0.00 0.00 0.00 0.00 0.00 0.00 0.00 0.00 0.00 0.00 0.00 0.00 0.01 0.01 0.01 0.01 0.02 0.02 0.02 0.02 0.01 0.01 0.01 0.02 0.01 0.01 0.01 0.01 0.01 0.03 0.08 0.07 0.05 0.05 0.04 0.04 0.04 0.04 0.04 0.04 0.05 0.05 0.05 0.05 0.05 0.06 0.07 0.07 0.07 0.07 0.13 0.17 0.21 0.21 0.20 0.22 0.22 0.22 0.20 0.26 0.26 0.26 0.25 0.28 0.28 0.34 0.66 0.95
0.00 0.00 0.00 0.00 0.00 0.00 0.00 0.00 0.00 0.00 0.00 0.00 0.00 0.01 0.01 0.01 0.01 0.02 0.02 0.02 0.02 0.02 0.02 0.02 0.02 0.01 0.01 0.01 0.01 0.01 0.02 0.06 0.06 0.05 0.05 0.04 0.04 0.04 0.04 0.04 0.03 0.03 0.03 0.04 0.04 0.04 0.04 0.05 0.07 0.07 0.08 0.08 0.18 0.28 0.28 0.28 0.30 0.27 0.27 0.19 0.18 0.22 0.22 0.23 0.17 0.17 0.23 0.46 0.71
0.00 0.00 0.00 0.00 0.00 0.00 0.00 0.00 0.00 0.00 0.00 0.00 0.00 0.00 0.00 0.00 0.01 0.01 0.01 0.01 0.02 0.02 0.02 0.02 0.02 0.01 0.01 0.01 0.01 0.01 0.02 0.02 0.03 0.04 0.04 0.03 0.04 0.04 0.04 0.03 0.03 0.02 0.02 0.02 0.02 0.02 0.02 0.02 0.03 0.03 0.05 0.05 0.04 0.08 0.08 0.20 0.23 0.18 0.18 0.16 0.18 0.11 0.11 0.12 0.11 0.11 0.13 0.19 0.43
0.00 0.00 0.00 0.00 0.00 0.00 0.00 0.00 0.00 0.00 0.00 0.00 0.00 0.00 0.00 0.00 0.00 0.01 0.01 0.01 0.01 0.02 0.02 0.02 0.02 0.01 0.01 0.01 0.01 0.01 0.02 0.05 0.06 0.05 0.05 0.04 0.03 0.04 0.04 0.03 0.03 0.03 0.03 0.02 0.02 0.02 0.01 0.01 0.02 0.02 0.03 0.04 0.04 0.04 0.04 0.09 0.13 0.10 0.10 0.07 0.14 0.16 0.16 0.14 0.11 0.11 0.13 0.16 0.29
0.00 0.00 0.00 0.00 0.00 0.00 0.00 0.00 0.00 0.00 0.00 0.00 0.00 0.00 0.00 0.00 0.00 0.01 0.01 0.01 0.01 0.01 0.01 0.01 0.01 0.01 0.01 0.01 0.01 0.01 0.02 0.02 0.04 0.07 0.07 0.09 0.05 0.03 0.03 0.03 0.03 0.03 0.03 0.03 0.02 0.02 0.01 0.01 0.01 0.01 0.02 0.03 0.04 0.04 0.04 0.04 0.07 0.07 0.07 0.03 0.07 0.14 0.14 0.11 0.12 0.12 0.15 0.17 0.21
0.00 0.00 0.00 0.00 0.00 0.00 0.00 0.00 0.00 0.00 0.00 0.00 0.00 0.00 0.00 0.00 0.00 0.00 0.00 0.01 0.01 0.01 0.01 0.01 0.01 0.01 0.01 0.01 0.01 0.01 0.02 0.02 0.02 0.03 0.03 0.03 0.07 0.04 0.04 0.02 0.03 0.03 0.03 0.03 0.03 0.03 0.02 0.01 0.01 0.01 0.02 0.03 0.03 0.04 0.04 0.03 0.03 0.04 0.04 0.04 0.05 0.08 0.08 0.07 0.08 0.08 0.09 0.21 0.22
0.00 0.00 0.00 0.00 0.00 0.00 0.00 0.00 0.00 0.00 0.00 0.00 0.00 0.00 0.00 0.00 0.00 0.00 0.00 0.00 0.01 0.01 0.01 0.01 0.01 0.01 0.01 0.01 0.01 0.01 0.01 0.01 0.02 0.01 0.01 0.01 0.02 0.09 0.09 0.07 0.03 0.03 0.03 0.04 0.04 0.04 0.04 0.02 0.02 0.02 0.02 0.03 0.03 0.03 0.03 0.03 0.02 0.02 0.02 0.04 0.05 0.06 0.06 0.07 0.06 0.06 0.06 0.08 0.23
0.00 0.00 0.00 0.00 0.00 0.00 0.00 0.00 0.00 0.00 0.00 0.00 0.00 0.00 0.00 0.00 0.00 0.00 0.00 0.01 0.01 0.01 0.01 0.01 0.01 0.01 0.01 0.01 0.01 0.01 0.01 0.01 0.01 0.01 0.01 0.01 0.01 0.01 0.01 0.05 0.13 0.13 0.13 0.05 0.04 0.04 0.05 0.04 0.02 0.02 0.03 0.03 0.04 0.04 0.04 0.03 0.02 0.02 0.02 0.05 0.06 0.08 0.08 0.08 0.07 0.07 0.05 0.06 0.09
0.00 0.00 0.00 0.00 0.00 0.00 0.00 0.00 0.00 0.00 0.00 0.00 0.00 0.00 0.00 0.00 0.00 0.00 0.00 0.00 0.01 0.01 0.01 0.01 0.01 0.01 0.01 0.01 0.01 0.01 0.01 0.01 0.01 0.01 0.01 0.01 0.01 0.01 0.01 0.02 0.03 0.07 0.07 0.12 0.13 0.13 0.08 0.06 0.04 0.04 0.04 0.03 0.03 0.03 0.03 0.03 0.03 0.03 0.03 0.03 0.07 0.10 0.10 0.10 0.08 0.08 0.06 0.07 0.09
0.00 0.00 0.00 0.00 0.00 0.00 0.00 0.00 0.00 0.00 0.00 0.00 0.00 0.00 0.00 0.00 0.00 0.00 0.00 0.00 0.01 0.01 0.01 0.01 0.01 0.01 0.01 0.01 0.01 0.01 0.01 0.01 0.01 0.01 0.01 0.01 0.01 0.01 0.01 0.01 0.02 0.02 0.02 0.04 0.05 0.05 0.09 0.15 0.11 0.11 0.11 0.06 0.04 0.04 0.04 0.03 0.03 0.03 0.03 0.05 0.06 0.12 0.12 0.11 0.10 0.10 0.07 0.07 0.10
0.00 0.00 0.00 0.00 0.00 0.00 0.00 0.00 0.00 0.00 0.00 0.00 0.00 0.00 0.00 0.00 0.00 0.00 0.00 0.00 0.00 0.01 0.01 0.01 0.01 0.01 0.01 0.01 0.01 0.01 0.01 0.01 0.01 0.01 0.01 0.01 0.01 0.01 0.01 0.01 0.02 0.02 0.02 0.02 0.01 0.01 0.02 0.04 0.02 0.02 0.04 0.11 0.09 0.09 0.09 0.08 0.08 0.08 0.08 0.08 0.09 0.10 0.10 0.14 0.11 0.11 0.09 0.09 0.10
0.00 0.00 0.00 0.00 0.00 0.00 0.00 0.00 0.00 0.00 0.00 0.00 0.00 0.00 0.00 0.00 0.00 0.00 0.00 0.00 0.00 0.00 0.00 0.01 0.01 0.01 0.01 0.01 0.01 0.01 0.01 0.01 0.01 0.01 0.01 0.01 0.01 0.01 0.01 0.01 0.01 0.02 0.02 0.01 0.01 0.01 0.01 0.01 0.01 0.01 0.01 0.03 0.09 0.08 0.08 0.08 0.09 0.10 0.10 0.10 0.11 0.08 0.08 0.09 0.14 0.14 0.12 0.13 0.14
0.00 0.00 0.00 0.00 0.00 0.00 0.00 0.00 0.00 0.00 0.00 0.00 0.00 0.00 0.00 0.00 0.00 0.00 0.00 0.00 0.00 0.00 0.00 0.01 0.01 0.01 0.01 0.01 0.01 0.01 0.01 0.01 0.01 0.01 0.01 0.01 0.00 0.00 0.00 0.01 0.01 0.01 0.01 0.01 0.01 0.01 0.01 0.01 0.00 0.00 0.01 0.02 0.04 0.06 0.06 0.06 0.07 0.08 0.08 0.10 0.10 0.12 0.12 0.12 0.08 0.08 0.13 0.16 0.17
0.00 0.00 0.00 0.00 0.00 0.00 0.00 0.00 0.00 0.00 0.00 0.00 0.00 0.00 0.00 0.00 0.00 0.00 0.00 0.00 0.00 0.00 0.00 0.00 0.00 0.01 0.01 0.01 0.01 0.01 0.01 0.01 0.01 0.01 0.01 0.01 0.01 0.00 0.00 0.01 0.01 0.01 0.01 0.01 0.01 0.01 0.01 0.00 0.00 0.00 0.00 0.01 0.03 0.04 0.04 0.05 0.05 0.05 0.05 0.07 0.06 0.09 0.09 0.12 0.14 0.14 0.10 0.09 0.16
0.00 0.00 0.00 0.00 0.00 0.00 0.00 0.00 0.00 0.00 0.00 0.00 0.00 0.00 0.00 0.00 0.00 0.00 0.00 0.00 0.00 0.00 0.00 0.00 0.00 0.01 0.01 0.01 0.01 0.01 0.01 0.01 0.01 0.01 0.01 0.01 0.01 0.00 0.00 0.01 0.01 0.01 0.01 0.01 0.01 0.01 0.00 0.00 0.00 0.00 0.00 0.01 0.01 0.02 0.02 0.03 0.04 0.04 0.04 0.03 0.03 0.05 0.05 0.07 0.11 0.11 0.12 0.12 0.13
0.00 0.00 0.00 0.00 0.00 0.00 0.00 0.00 0.00 0.00 0.00 0.00 0.00 0.00 0.00 0.00 0.00 0.00 0.00 0.00 0.00 0.00 0.00 0.00 0.00 0.00 0.00 0.01 0.01 0.01 0.01 0.01 0.01 0.01 0.01 0.01 0.01 0.01 0.01 0.01 0.01 0.01 0.01 0.01 0.01 0.01 0.00 0.00 0.00 0.00 0.00 0.00 0.01 0.01 0.01 0.02 0.03 0.04 0.04 0.03 0.03 0.03 0.03 0.04 0.07 0.07 0.09 0.11 0.12
0.00 0.00 0.00 0.00 0.00 0.00 0.00 0.00 0.00 0.00 0.00 0.00 0.00 0.00 0.00 0.00 0.00 0.00 0.00 0.00 0.00 0.00 0.00 0.00 0.00 0.00 0.00 0.01 0.01 0.01 0.01 0.01 0.01 0.01 0.01 0.01 0.01 0.01 0.01 0.01 0.01 0.01 0.01 0.01 0.01 0.01 0.01 0.00 0.00 0.00 0.00 0.00 0.01 0.01 0.01 0.02 0.03 0.03 0.03 0.03 0.02 0.03 0.03 0.03 0.05 0.05 0.06 0.07 0.07
0.00 0.00 0.00 0.00 0.00 0.00 0.00 0.00 0.00 0.00 0.00 0.00 0.00 0.00 0.00 0.00 0.00 0.00 0.00 0.00 0.00 0.00 0.00 0.00 0.00 0.00 0.00 0.00 0.01 0.01 0.01 0.01 0.01 0.01 0.01 0.01 0.01 0.01 0.01 0.01 0.01 0.01 0.01 0.01 0.01 0.01 0.01 0.00 0.00 0.00 0.00 0.00 0.00 0.01 0.01 0.01 0.02 0.03 0.03 0.03 0.03 0.02 0.02 0.03 0.04 0.04 0.05 0.06 0.07
0.00 0.00 0.00 0.00 0.00 0.00 0.00 0.00 0.00 0.00 0.00 0.00 0.00 0.00 0.00 0.00 0.00 0.00 0.00 0.00 0.00 0.00 0.00 0.00 0.00 0.00 0.00 0.00 0.01 0.01 0.00 0.01 0.01 0.01 0.01 0.01 0.01 0.01 0.01 0.01 0.01 0.01 0.01 0.01 0.01 0.01 0.01 0.01 0.00 0.00 0.00 0.00 0.00 0.00 0.00 0.01 0.01 0.01 0.01 0.02 0.03 0.03 0.03 0.03 0.04 0.04 0.05 0.05 0.05
0.00 0.00 0.00 0.00 0.00 0.00 0.00 0.00 0.00 0.00 0.00 0.00 0.00 0.00 0.00 0.00 0.00 0.00 0.00 0.00 0.00 0.00 0.00 0.00 0.00 0.00 0.00 0.00 0.00 0.00 0.00 0.01 0.00 0.01 0.01 0.01 0.01 0.01 0.01 0.01 0.01 0.01 0.01 0.01 0.01 0.01 0.01 0.01 0.00 0.00 0.00 0.00 0.00 0.00 0.00 0.00 0.01 0.01 0.01 0.02 0.03 0.03 0.03 0.03 0.03 0.03 0.04 0.04 0.04
0.00 0.00 0.00 0.00 0.00 0.00 0.00 0.00 0.00 0.00 0.00 0.00 0.00 0.00 0.00 0.00 0.00 0.00 0.00 0.00 0.00 0.00 0.00 0.00 0.00 0.00 0.00 0.00 0.00 0.00 0.00 0.00 0.00 0.01 0.01 0.01 0.01 0.00 0.00 0.00 0.01 0.01 0.01 0.01 0.01 0.01 0.01 0.01 0.01 0.01 0.00 0.00 0.00 0.00 0.00 0.00 0.00 0.00 0.00 0.01 0.02 0.03 0.03 0.03 0.03 0.03 0.04 0.06 0.05
0.00 0.00 0.00 0.00 0.00 0.00 0.00 0.00 0.00 0.00 0.00 0.00 0.00 0.00 0.00 0.00 0.00 0.00 0.00 0.00 0.00 0.00 0.00 0.00 0.00 0.00 0.00 0.00 0.00 0.00 0.00 0.00 0.00 0.01 0.01 0.01 0.01 0.00 0.00 0.00 0.00 0.01 0.01 0.01 0.01 0.01 0.01 0.01 0.01 0.01 0.01 0.00 0.00 0.00 0.00 0.01 0.00 0.00 0.00 0.00 0.01 0.02 0.02 0.03 0.03 0.03 0.03 0.04 0.06
0.00 0.00 0.00 0.00 0.00 0.00 0.00 0.00 0.00 0.00 0.00 0.00 0.00 0.00 0.00 0.00 0.00 0.00 0.00 0.00 0.00 0.00 0.00 0.00 0.00 0.00 0.00 0.00 0.00 0.00 0.00 0.00 0.00 0.00 0.00 0.01 0.01 0.01 0.01 0.00 0.00 0.01 0.01 0.01 0.01 0.01 0.01 0.01 0.01 0.01 0.01 0.01 0.01 0.01 0.01 0.01 0.00 0.00 0.00 0.00 0.00 0.01 0.01 0.02 0.03 0.03 0.04 0.04 0.05
0.00 0.00 0.00 0.00 0.00 0.00 0.00 0.00 0.00 0.00 0.00 0.00 0.00 0.00 0.00 0.00 0.00 0.00 0.00 0.00 0.00 0.00 0.00 0.00 0.00 0.00 0.00 0.00 0.00 0.00 0.00 0.00 0.00 0.00 0.00 0.00 0.01 0.00 0.00 0.00 0.00 0.00 0.00 0.00 0.01 0.01 0.01 0.01 0.01 0.01 0.01 0.01 0.01 0.01 0.01 0.01 0.00 0.00 0.00 0.00 0.00 0.00 0.00 0.01 0.02 0.02 0.03 0.03 0.04
0.00 0.00 0.00 0.00 0.00 0.00 0.00 0.00 0.00 0.00 0.00 0.00 0.00 0.00 0.00 0.00 0.00 0.00 0.00 0.00 0.00 0.00 0.00 0.00 0.00 0.00 0.00 0.00 0.00 0.00 0.00 0.00 0.00 0.00 0.00 0.00 0.00 0.00 0.00 0.00 0.00 0.00 0.00 0.00 0.01 0.01 0.01 0.01 0.01 0.01 0.01 0.01 0.01 0.01 0.01 0.01 0.01 0.01 0.01 0.01 0.01 0.00 0.00 0.00 0.01 0.01 0.01 0.02 0.02
0.00 0.00 0.00 0.00 0.00 0.00 0.00 0.00 0.00 0.00 0.00 0.00 0.00 0.00 0.00 0.00 0.00 0.00 0.00 0.00 0.00 0.00 0.00 0.00 0.00 0.00 0.00 0.00 0.00 0.00 0.00 0.00 0.00 0.00 0.00 0.00 0.00 0.00 0.00 0.00 0.00 0.00 0.00 0.00 0.00 0.00 0.00 0.01 0.01 0.01 0.01 0.02 0.02 0.02 0.02 0.02 0.02 0.01 0.01 0.01 0.01 0.01 0.01 0.00 0.00 0.00 0.01 0.01 0.02